Flag for U.S.A. Weather past 2 weeks in Mobile, Alabama, U.S.A.

Now
61 °F

Heavy rain. Fog.


Feels Like: 61 °F
Forecast: 54 / 67 °F
Wind: 12 mph from Northeast

Location: Mobile Downtown Airport


UV Index: 5 (Moderate)

Visibility: 6 mi


Pressure: 30.05 "Hg

Humidity: 90%

Dew point: 58 °F

Location of MobileLocation

Historic Weather in Mobile

°F

Mobile temperature yesterday

Maximum temperature yesterday: 70 °F (at 1:53 PM)
Minimum temperature yesterday: 49 °F (at 1:53 AM)
Average temperature yesterday: 62 °F

Past Weeks' High & Low Weather Summary

 TemperatureHumidityPressure
High79 °F (Apr 7, 1:53 PM)100% (Apr 4, 6:53 AM)30.29 "Hg (Apr 4, 6:53 AM)
Low41 °F (Apr 16, 2:53 AM)25% (Apr 9, 4:53 PM)29.67 "Hg (Apr 7, 4:53 AM)
Average63 °F78%30.04 "Hg
* Reported Apr 3 4:53 AM — Apr 18 4:53 AM, Mobile, Weather by CustomWeather, © 2014

Note: Actual official high and low records may vary slightly from our data, if they occured in-between our weather recording intervals... More about our weather records

Advertising

Historic Weather Conditions — Data for Previous 24 hours

 ConditionsComfort  
Time TempWeatherWind HumidityBarometerVisibility
4:53 AM
Apr 18
61 °FLight rain. Mostly cloudy.14 mph93%30.06 "Hg9 mi
3:53 AM61 °FRain. Low clouds.13 mph93%30.07 "Hg8 mi
2:53 AM61 °FRain. Fog.10 mph93%30.09 "Hg5 mi
1:53 AM61 °FLight rain. Mostly cloudy.12 mph93%30.12 "Hg8 mi
12:53 AM61 °FRain. Overcast.13 mph93%30.16 "Hg7 mi
11:53 PM
Apr 17
62 °FLight rain. Mostly cloudy.10 mph90%30.18 "Hg7 mi
10:53 PM62 °FRain. Fog.6 mph90%30.19 "Hg5 mi
9:53 PM63 °FLight rain. Overcast.8 mph87%30.19 "Hg7 mi
8:53 PM66 °FOvercast.8 mph73%30.17 "Hg10 mi
7:53 PM65 °FLight rain. Overcast.9 mph78%30.18 "Hg8 mi
6:53 PM67 °FMostly cloudy.7 mph71%30.16 "Hg10 mi
5:53 PM68 °FOvercast.No wind73%30.17 "Hg10 mi
4:53 PM69 °FMostly cloudy.3 mph61%30.15 "Hg10 mi
3:53 PM70 °FMostly cloudy.5 mph64%30.17 "Hg10 mi
2:53 PM70 °FSunny.5 mph64%30.17 "Hg10 mi
1:53 PM70 °FScattered clouds.6 mph61%30.19 "Hg10 mi
12:53 PM69 °FBroken clouds.7 mph61%30.21 "Hg10 mi
11:53 AM67 °FScattered clouds.8 mph63%30.24 "Hg10 mi
10:53 AM62 °FMostly cloudy.9 mph73%30.25 "Hg10 mi
10:00 AM59 °FMostly cloudy.9 mph75%30.26 "Hg10 mi
8:53 AM57 °FMostly cloudy.8 mph81%30.25 "Hg10 mi
7:53 AM56 °FMore clouds than sun.20 mph81%30.23 "Hg10 mi
6:53 AM55 °FPassing clouds.20 mph83%30.20 "Hg10 mi
6:00 AM55 °FMostly cloudy.20 mph83%30.18 "Hg10 mi
Weather by CustomWeather, © 2014

See weather overview